Greybull, WY

12:31 AM MST on December 12, 2017 (GMT -0700)
South Big Horn County

Weather History for KGEY - August, 2013

Change the Weather History Date:

Tuesday, August 27, 2013

  Actual Average Record
Temperature  
Mean Temperature 78 °F 69 °F  
Max Temperature 91 °F 86 °F 99 °F (2011)
Min Temperature 64 °F 52 °F 42 °F (2005)
Degree Days  
Heating Degree Days 0 1  
Month to date heating degree days 0 5  
Since 1 June heating degree days 36 81  
Since 1 July heating degree days 0 11  
Cooling Degree Days 13 5  
Month to date cooling degree days 281 212  
Year to date cooling degree days 864 615  
Since 1 June cooling degree days 837 595  
Growing Degree Days 27 (Base 50)    
Moisture  
Dew Point 48 °F    
Average Humidity 40    
Maximum Humidity 60    
Minimum Humidity 19    
Precipitation  
Precipitation T in 0.02 in 0.12 in (1977)
Month to date precipitation T 0.33  
Year to date precipitation 2.62 5.36  
Sea Level Pressure  
Sea Level Pressure 29.90 in    
Wind  
Wind Speed 5 mph (NW)    
Max Wind Speed 26 mph    
Max Gust Speed 32 mph    
Visibility 10 miles    
Events      
T = Trace of Precipitation, MM = Missing Value Source: NWS Daily Summary

Daily Weather History Graph

Daily Weather History Graph

Search for Another Location

Airport or City:

Trip Planner

Search our weather history database for the weather conditions in past years. The results will help you decide how hot, cold, wet, or windy it might be!

Date:

Astronomy

Aug. 27, 2013 Rise Set
Actual Time 6:29 AM MDT 7:57 PM MDT
Civil Twilight 5:59 AM MDT 8:27 PM MDT
Nautical Twilight 5:22 AM MDT 9:04 PM MDT
Astronomical Twilight 4:42 AM MDT 9:43 PM MDT
Moon 11:34 PM MDT (8/27) 1:48 PM MDT (8/27)
Length of Visible Light 14h 28m
Length of Day
13h 27m
Waning Gibbous, 56% of the Moon is Illuminated
Aug 27
Waning Gibbous
Aug 28
Last Quarter
Sep 5
New
Sep 12
First Quarter
Sep 19
Full

Hourly Weather History & Observations

Time (MDT) Temp. Dew Point Humidity Pressure Visibility Wind Dir Wind Speed Gust Speed Precip Events Conditions
12:53 AM 77.0 °F 48.0 °F 36% 29.88 in 10.0 mi WNW 4.6 mph - N/A   Overcast
1:53 AM 75.9 °F 48.9 °F 38% 29.88 in 10.0 mi WNW 9.2 mph - N/A   Mostly Cloudy
2:53 AM 73.0 °F 48.9 °F 42% 29.88 in 10.0 mi North 3.5 mph - N/A   Clear
3:53 AM 69.1 °F 48.0 °F 47% 29.91 in 10.0 mi NW 4.6 mph - N/A   Clear
4:53 AM 69.1 °F 50.0 °F 51% 29.91 in 10.0 mi NE 3.5 mph - N/A   Clear
5:53 AM 64.9 °F 50.0 °F 58% 29.93 in 10.0 mi West 4.6 mph - N/A   Clear
6:53 AM 64.9 °F 48.9 °F 56% 29.95 in 10.0 mi SE 4.6 mph - N/A   Clear
7:53 AM 70.0 °F 48.9 °F 47% 29.96 in 10.0 mi Calm Calm - N/A   Clear
8:53 AM 73.0 °F 50.0 °F 44% 29.96 in 10.0 mi Calm Calm - N/A   Clear
9:53 AM 77.0 °F 50.0 °F 39% 29.96 in 10.0 mi Calm Calm - N/A   Clear
10:53 AM 80.1 °F 50.0 °F 35% 29.95 in 10.0 mi Variable 4.6 mph - N/A   Clear
11:53 AM 84.0 °F 48.0 °F 28% 29.92 in 10.0 mi East 3.5 mph - N/A   Clear
12:53 PM 87.1 °F 44.1 °F 22% 29.90 in 10.0 mi NW 8.1 mph - N/A   Clear
1:53 PM 87.1 °F 44.1 °F 22% 29.88 in 10.0 mi West 3.5 mph - N/A   Clear
2:53 PM 90.0 °F 42.1 °F 19% 29.87 in 10.0 mi ESE 3.5 mph - N/A   Clear
3:53 PM 88.0 °F 42.1 °F 20% 29.87 in 10.0 mi SSE 5.8 mph - N/A   Clear
4:53 PM 88.0 °F 42.1 °F 20% 29.85 in 10.0 mi Calm Calm - N/A   Clear
5:53 PM 89.1 °F 43.0 °F 20% 29.84 in 10.0 mi NNE 4.6 mph - N/A   Clear
6:53 PM 88.0 °F 42.1 °F 20% 29.84 in 10.0 mi NNW 5.8 mph - N/A   Clear
7:53 PM 80.1 °F 51.1 °F 36% 29.86 in 10.0 mi WNW 20.7 mph 32.2 mph N/A   Clear
8:53 PM 79.0 °F 50.0 °F 36% 29.89 in 10.0 mi WNW 19.6 mph 25.3 mph N/A   Clear
9:53 PM 79.0 °F 48.9 °F 35% 29.89 in 10.0 mi NW 11.5 mph - N/A   Mostly Cloudy
10:53 PM 77.0 °F 50.0 °F 39% 29.90 in 10.0 mi Calm Calm - 0.00 in   Mostly Cloudy
11:53 PM 73.0 °F 51.1 °F 46% 29.90 in 10.0 mi Calm Calm - N/A   Clear